Regional Weather Roundup
Issued by NWS

Home | Current Version | Previous Version | Text Only | Print | Product List | Glossary Off
Versions: 1 2 3 4 5 6 7 8 9 10 11 12 13 14 15 16 17 18 19 20 21 22 23 24 25 26 27 28 29 30 31 32 33 34 35 36 37 38 39 40 41 42 43 44 45 46 47 48 49 50

921
ASUS43 KLMK 271302
RWRKY
KENTUCKY REGIONAL WEATHER ROUNDUP
NATIONAL WEATHER SERVICE LOUISVILLE KY
800 AM EST MON FEB 27 2017

NOTE "FAIR" INDICATES FEW OR NO CLOUDS BELOW 12,000 FEET
WITH NO SIGNIFICANT WEATHER AND/OR OBSTRUCTIONS TO VISIBILITY.

KYZ001>023-026-027-061>063-070>075-271400-
WESTERN AND SOUTH CENTRAL KENTUCKY

CITY           SKY/WX    TMP DP  RH WIND       PRES   REMARKS
PADUCAH        CLOUDY    46  42  86 E3        30.14R
HENDERSON      CLOUDY    43  37  81 E6        30.18R
OWENSBORO      NOT AVBL
HOPKINSVILLE   CLOUDY    47  45  91 S7        30.13F
BOWLING GREEN  LGT RAIN  47  43  86 SE7       30.20S
GLASGOW        NOT AVBL
$$

KYZ024-025-028>034-038-045-046-053-271400-
NORTH CENTRAL KENTUCKY

CITY           SKY/WX    TMP DP  RH WIND       PRES   REMARKS
LOUISVILLE/SDF LGT RAIN  44  40  85 SE7       30.23S
LOUISVILLE/LOU LGT RAIN  44  40  85 E5        30.24S
FORT KNOX      CLOUDY    42  42  99 E6        30.20R
$$

KYZ035>037-039>044-047>052-055>060-089>105-271400-
NORTHEAST KENTUCKY

CITY           SKY/WX    TMP DP  RH WIND       PRES   REMARKS
LEXINGTON      LGT RAIN  42  39  89 SE5       30.26S
COVINGTON      LGT RAIN  41  37  86 S8        30.24R
FRANKFORT      CLOUDY    42  38  85 SE6       30.25R
$$

KYZ054-064>069-076>088-106>120-271400-
SOUTHEAST KENTUCKY

CITY           SKY/WX    TMP DP  RH WIND       PRES   REMARKS
JACKSON        CLOUDY    42  22  44 E3        30.29R
LONDON         CLOUDY    42  31  64 S3        30.26F
SOMERSET       CLOUDY    43  30  61 CALM      30.28R
MIDDLESBORO    MOCLDY    35  32  88 CALM      30.32R
MONTICELLO     CLOUDY    43  31  62 CALM      30.28R
$$





USA.gov is the U.S. government's official web portal to all federal, state and local government web resources and services.